Terminal Aerodrome Forecast
Issued by NWS Quad Cities IA IL

Home | Current Version | Previous Version | Text Only | Print | Product List | Glossary On
Versions: 1 2 3 4 5 6 7 8 9 10 11 12 13 14 15 16
065
FTUS43 KDVN 051408 AAA
TAFMLI
TAF AMD
KMLI 051408Z 0514/0612 33009KT P6SM OVC020
     FM051500 28005KT P6SM BKN180
     FM060500 VRB04KT P6SM VCSH OVC030
     FM060900 19005KT P6SM OVC025=

USA.gov is the U.S. government's official web portal to all federal, state and local government web resources and services.